Weather History for Inverness, FL

Change the Weather History Date:

Sunday, February 3, 2013

  Actual Average (KOCF) Record (KOCF)
Temperature  
Mean Temperature 50 °F -  
Max Temperature 69 °F 67 °F 80 °F (1999)
Min Temperature 32 °F 44 °F 32 °F (2013)
Degree Days  
Heating Degree Days 14    
Moisture  
Dew Point 38 °F    
Average Humidity 70    
Maximum Humidity 100    
Minimum Humidity 25    
Precipitation  
Precipitation 0.00 in - - ()
Sea Level Pressure  
Sea Level Pressure 30.16 in    
Wind  
Wind Speed 2 mph (NW)    
Max Wind Speed 9 mph    
Max Gust Speed -    
Visibility 10 miles    
Events      
Averages and records for this station are not official NWS values.
T = Trace of Precipitation, MM = Missing Value Source: NWS Daily Summary

Daily Weather History Graph

Daily Weather History Graph

Search for Another Location

Airport:

Trip Planner

Search our weather history database for the weather conditions in past years. The results will help you decide how hot, cold, wet, or windy it might be!

Date:

Astronomy

Feb. 03, 2013 Rise Set
Actual Time 7:16 AM EST 6:10 PM EST
Civil Twilight 6:51 AM EST 6:34 PM EST
Nautical Twilight 6:23 AM EST 7:03 PM EST
Astronomical Twilight 5:55 AM EST 7:31 PM EST
Moon 12:41 AM EST (2/3) 11:49 AM EST (2/3)
Length of Visible Light 11h 43m
Length of Day
10h 53m
Waning Gibbous, 49% of the Moon is Illuminated
Feb 3
Waning Gibbous
Feb 10
New
Feb 17
First Quarter
Feb 25
Full
Mar 4
Last Quarter

Hourly Weather History & Observations

Time (EST) Temp. Dew Point Humidity Pressure Visibility Wind Dir Wind Speed Gust Speed Precip Events Conditions
12:15 AM 42.8 °F 35.6 °F 76% 30.20 in 10.0 mi Calm Calm - N/A   Clear
12:35 AM 41.0 °F 33.8 °F 76% 30.19 in 10.0 mi Calm Calm - N/A   Clear
12:55 AM 39.2 °F 33.8 °F 81% 30.19 in 10.0 mi Calm Calm - N/A   Clear
1:15 AM 37.4 °F 33.8 °F 87% 30.18 in 10.0 mi Calm Calm - N/A   Clear
1:35 AM 37.4 °F 33.8 °F 87% 30.17 in 10.0 mi Calm Calm - N/A   Clear
1:55 AM 35.6 °F 33.8 °F 93% 30.17 in 10.0 mi Calm Calm - N/A   Clear
2:15 AM 35.6 °F 32.0 °F 87% 30.17 in 10.0 mi Calm Calm - N/A   Clear
2:35 AM 35.6 °F 33.8 °F 93% 30.17 in 10.0 mi Calm Calm - N/A   Clear
3:15 AM 33.8 °F 33.8 °F 100% 30.16 in 10.0 mi Calm Calm - N/A   Clear
3:35 AM 33.8 °F 33.8 °F 100% 30.16 in 10.0 mi Calm Calm - N/A   Clear
3:55 AM 33.8 °F 32.0 °F 93% 30.17 in 10.0 mi Calm Calm - N/A   Clear
4:15 AM 33.8 °F 32.0 °F 93% 30.16 in 10.0 mi Calm Calm - N/A   Clear
4:55 AM 32.0 °F 32.0 °F 100% 30.17 in 10.0 mi Calm Calm - N/A   Clear
5:15 AM 32.0 °F 32.0 °F 100% 30.17 in 10.0 mi Calm Calm - N/A   Clear
5:35 AM 32.0 °F 32.0 °F 100% 30.18 in 10.0 mi Calm Calm - N/A   Clear
6:15 AM 32.0 °F 32.0 °F 100% 30.19 in 10.0 mi Calm Calm - N/A   Clear
6:35 AM 32.0 °F 32.0 °F 100% 30.20 in 10.0 mi Calm Calm - N/A   Clear
6:55 AM 32.0 °F 32.0 °F 100% 30.20 in 10.0 mi Calm Calm - N/A   Clear
7:15 AM 32.0 °F 32.0 °F 100% 30.21 in 10.0 mi Calm Calm - N/A   Clear
7:35 AM 32.0 °F 30.2 °F 93% 30.21 in 10.0 mi Calm Calm - N/A   Clear
7:55 AM 33.8 °F 32.0 °F 93% 30.21 in 10.0 mi Calm Calm - N/A   Clear
8:15 AM 35.6 °F 33.8 °F 93% 30.21 in 10.0 mi Calm Calm - N/A   Clear
8:35 AM 41.0 °F 37.4 °F 87% 30.21 in 10.0 mi Calm Calm - N/A   Clear
8:55 AM 46.4 °F 41.0 °F 81% 30.21 in 10.0 mi Calm Calm - N/A   Clear
9:15 AM 51.8 °F 42.8 °F 71% 30.21 in 10.0 mi Calm Calm - N/A   Clear
9:35 AM 55.4 °F 46.4 °F 72% 30.21 in 10.0 mi Calm Calm - N/A   Clear
9:55 AM 60.8 °F 48.2 °F 63% 30.21 in 10.0 mi NNW 3.5 mph - N/A   Clear
10:15 AM 62.6 °F 50.0 °F 63% 30.21 in 10.0 mi North 6.9 mph - N/A   Clear
10:35 AM 60.8 °F 48.2 °F 63% 30.21 in 10.0 mi North 8.1 mph - N/A   Scattered Clouds
10:55 AM 60.8 °F 50.0 °F 68% 30.21 in 10.0 mi North 5.8 mph - N/A   Clear
11:15 AM 62.6 °F 50.0 °F 63% 30.21 in 10.0 mi NNE 5.8 mph - N/A   Clear
11:35 AM 62.6 °F 50.0 °F 63% 30.20 in 10.0 mi NNW 4.6 mph - N/A   Scattered Clouds
11:55 AM 64.4 °F 50.0 °F 59% 30.19 in 10.0 mi NNW 8.1 mph - N/A   Mostly Cloudy
12:15 PM 64.4 °F 50.0 °F 59% 30.18 in 10.0 mi NW 4.6 mph - N/A   Overcast
12:35 PM 66.2 °F 50.0 °F 56% 30.17 in 10.0 mi WNW 4.6 mph - N/A   Mostly Cloudy
12:55 PM 66.2 °F 48.2 °F 52% 30.16 in 10.0 mi WNW 4.6 mph - N/A   Scattered Clouds
1:15 PM 68.0 °F 48.2 °F 49% 30.14 in 10.0 mi WNW 5.8 mph - N/A   Scattered Clouds
1:35 PM 68.0 °F 46.4 °F 46% 30.13 in 10.0 mi NNW 9.2 mph - N/A   Mostly Cloudy
1:55 PM 69.8 °F 42.8 °F 38% 30.12 in 10.0 mi NNW 9.2 mph - N/A   Scattered Clouds
2:15 PM 69.8 °F 42.8 °F 38% 30.11 in 10.0 mi NNW 9.2 mph - N/A   Clear
2:35 PM 69.8 °F 42.8 °F 38% 30.11 in 10.0 mi North 6.9 mph - N/A   Scattered Clouds
2:55 PM 69.8 °F 42.8 °F 38% 30.10 in 10.0 mi WNW 4.6 mph - N/A   Scattered Clouds
3:15 PM 69.8 °F 33.8 °F 27% 30.10 in 10.0 mi NW 9.2 mph - N/A   Clear
3:35 PM 69.8 °F 32.0 °F 25% 30.09 in 10.0 mi West 4.6 mph - N/A   Clear
3:55 PM 68.0 °F 32.0 °F 26% 30.09 in 10.0 mi West 8.1 mph - N/A   Clear
4:15 PM 68.0 °F 32.0 °F 26% 30.10 in 10.0 mi West 8.1 mph - N/A   Clear
4:35 PM 66.2 °F 32.0 °F 28% 30.10 in 10.0 mi West 3.5 mph - N/A   Clear
4:55 PM 66.2 °F 33.8 °F 30% 30.10 in 10.0 mi WNW 3.5 mph - N/A   Clear
5:15 PM 64.4 °F 33.8 °F 32% 30.10 in 10.0 mi West 5.8 mph - N/A   Clear
5:35 PM 62.6 °F 33.8 °F 34% 30.11 in 10.0 mi West 5.8 mph - N/A   Clear
5:55 PM 60.8 °F 35.6 °F 39% 30.11 in 10.0 mi West 3.5 mph - N/A   Clear
6:15 PM 59.0 °F 37.4 °F 45% 30.11 in 10.0 mi Calm Calm - N/A   Clear
6:35 PM 55.4 °F 37.4 °F 51% 30.11 in 10.0 mi WSW 3.5 mph - N/A   Clear
6:55 PM 55.4 °F 37.4 °F 51% 30.12 in 10.0 mi West 3.5 mph - N/A   Clear
7:15 PM 53.6 °F 37.4 °F 54% 30.12 in 10.0 mi Calm Calm - N/A   Clear
7:55 PM 50.0 °F 37.4 °F 62% 30.13 in 10.0 mi Calm Calm - N/A   Clear
8:15 PM 48.2 °F 37.4 °F 66% 30.14 in 10.0 mi Calm Calm - N/A   Clear
8:35 PM 46.4 °F 37.4 °F 71% 30.14 in 10.0 mi Calm Calm - N/A   Clear
8:55 PM 44.6 °F 37.4 °F 76% 30.14 in 10.0 mi Calm Calm - N/A   Clear
9:15 PM 44.6 °F 37.4 °F 76% 30.14 in 10.0 mi Calm Calm - N/A   Clear
9:35 PM 44.6 °F 37.4 °F 76% 30.15 in 10.0 mi Calm Calm - N/A   Clear
9:55 PM 42.8 °F 37.4 °F 81% 30.15 in 10.0 mi Calm Calm - N/A   Clear
10:15 PM 42.8 °F 37.4 °F 81% 30.15 in 10.0 mi Calm Calm - N/A   Clear
10:35 PM 41.0 °F 37.4 °F 87% 30.15 in 10.0 mi Calm Calm - N/A   Clear
10:55 PM 37.4 °F 35.6 °F 93% 30.15 in 10.0 mi Calm Calm - N/A   Clear
11:15 PM 37.4 °F 35.6 °F 93% 30.15 in 10.0 mi Calm Calm - N/A   Clear
11:35 PM 37.4 °F 37.4 °F 100% 30.14 in 10.0 mi Calm Calm - N/A   Clear
11:55 PM 37.4 °F 37.4 °F 100% 30.14 in 10.0 mi Calm Calm - N/A   Clear